Year,Month,Day,Hour,Minute,Value (Times are PST for temperature in C)
2014,07,21,08,45,15.70
2014,07,21,08,46,15.70
2014,07,21,08,47,15.70
2014,07,21,08,48,15.80
2014,07,21,08,49,15.80
2014,07,21,08,50,15.80
2014,07,21,08,51,15.80
2014,07,21,08,52,15.80
2014,07,21,08,53,15.80
2014,07,21,08,54,15.80
2014,07,21,08,55,15.90
2014,07,21,08,56,15.90
2014,07,21,08,57,16.10
2014,07,21,08,58,16.10
2014,07,21,08,59,16.10
2014,07,21,09,00,16.10
2014,07,21,09,01,16.10
2014,07,21,09,02,16.10
2014,07,21,09,03,16.10
2014,07,21,09,04,16.10
2014,07,21,09,05,16.10
2014,07,21,09,06,16.10
2014,07,21,09,07,16.10
2014,07,21,09,08,16.10
2014,07,21,09,09,16.10
2014,07,21,09,10,16.10
2014,07,21,09,11,16.10
2014,07,21,09,12,16.10
2014,07,21,09,13,16.10
2014,07,21,09,14,16.10
2014,07,21,09,15,16.10
2014,07,21,09,16,16.10
2014,07,21,09,17,16.10
2014,07,21,09,18,16.10
2014,07,21,09,19,16.10
2014,07,21,09,20,16.10
2014,07,21,09,21,16.10
2014,07,21,09,22,16.10
2014,07,21,09,23,16.10
2014,07,21,09,24,16.10
2014,07,21,09,25,16.10
2014,07,21,09,26,16.10
2014,07,21,09,27,16.10
2014,07,21,09,28,16.10
2014,07,21,09,29,16.10
2014,07,21,09,30,16.10
2014,07,21,09,31,16.10
2014,07,21,09,32,16.20
2014,07,21,09,33,16.20
2014,07,21,09,34,16.20
2014,07,21,09,35,16.30
2014,07,21,09,36,16.30
2014,07,21,09,37,16.30
2014,07,21,09,38,16.30
2014,07,21,09,39,16.30
2014,07,21,09,40,16.30
2014,07,21,09,41,16.30
2014,07,21,09,42,16.30
2014,07,21,09,43,16.30
2014,07,21,09,44,16.30
2014,07,21,09,45,16.30
2014,07,21,09,46,16.40
2014,07,21,09,47,16.40
2014,07,21,09,48,16.60
2014,07,21,09,49,16.70
2014,07,21,09,50,16.90
2014,07,21,09,51,17.10
2014,07,21,09,52,17.30
2014,07,21,09,53,17.30
2014,07,21,09,54,17.40
2014,07,21,09,55,17.50
2014,07,21,09,56,17.60
2014,07,21,09,57,17.60
2014,07,21,09,58,17.70
2014,07,21,09,59,17.70
2014,07,21,10,00,17.80
2014,07,21,10,01,17.80
2014,07,21,10,02,17.80
2014,07,21,10,03,17.90
2014,07,21,10,04,17.90
2014,07,21,10,05,17.90
2014,07,21,10,06,17.90
2014,07,21,10,07,17.90
2014,07,21,10,08,17.90
2014,07,21,10,09,17.90
2014,07,21,10,10,17.90
2014,07,21,10,11,17.90
2014,07,21,10,12,17.90
2014,07,21,10,13,17.90
2014,07,21,10,14,17.90
2014,07,21,10,15,17.90
2014,07,21,10,16,17.80
2014,07,21,10,17,17.80
2014,07,21,10,18,17.80
2014,07,21,10,19,17.80
2014,07,21,10,20,17.70
2014,07,21,10,21,17.70
2014,07,21,10,22,17.60
2014,07,21,10,23,17.60
2014,07,21,10,24,17.50
2014,07,21,10,25,17.50
2014,07,21,10,26,17.50
2014,07,21,10,27,17.40
2014,07,21,10,28,17.40
2014,07,21,10,29,17.40
2014,07,21,10,30,17.30
2014,07,21,10,31,17.40
2014,07,21,10,32,17.40
2014,07,21,10,33,17.50
2014,07,21,10,34,17.50
2014,07,21,10,35,17.50
2014,07,21,10,36,17.50
2014,07,21,10,37,17.50
2014,07,21,10,38,17.50
2014,07,21,10,39,17.50
2014,07,21,10,40,17.50
2014,07,21,10,41,17.50
2014,07,21,10,42,17.50
2014,07,21,10,43,17.60
2014,07,21,10,44,17.70
2014,07,21,10,45,17.70
2014,07,21,10,46,17.70
2014,07,21,10,47,17.80
2014,07,21,10,48,17.80
2014,07,21,10,49,17.80
2014,07,21,10,50,17.80
2014,07,21,10,51,17.80
2014,07,21,10,52,17.80
2014,07,21,10,53,17.80
2014,07,21,10,54,17.80
2014,07,21,10,55,17.90
2014,07,21,10,56,17.90
2014,07,21,10,57,18.10
2014,07,21,10,58,18.20
2014,07,21,10,59,18.20
2014,07,21,11,00,18.30
2014,07,21,11,01,18.30
2014,07,21,11,02,18.20
2014,07,21,11,03,18.20
2014,07,21,11,04,18.20
2014,07,21,11,05,18.20
2014,07,21,11,06,18.20
2014,07,21,11,07,18.20
2014,07,21,11,08,18.20
2014,07,21,11,09,18.20
2014,07,21,11,10,18.30
2014,07,21,11,11,18.40
2014,07,21,11,12,18.40
2014,07,21,11,13,18.40
2014,07,21,11,14,18.40
2014,07,21,11,15,18.50
2014,07,21,11,17,18.50
2014,07,21,11,18,18.50
2014,07,21,11,19,18.60
2014,07,21,11,21,18.60
2014,07,21,11,22,18.70
2014,07,21,11,23,18.80
2014,07,21,11,24,18.80
2014,07,21,11,25,18.90
2014,07,21,11,26,18.90
2014,07,21,11,27,18.90
2014,07,21,11,28,19.10
2014,07,21,11,29,19.10
2014,07,21,11,30,19.20
2014,07,21,11,31,19.40
2014,07,21,11,32,19.40
2014,07,21,11,33,19.50
2014,07,21,11,34,19.70
2014,07,21,11,35,19.70
2014,07,21,11,36,19.80
2014,07,21,11,37,19.80
2014,07,21,11,38,19.90
2014,07,21,11,39,19.80
2014,07,21,11,40,19.70
2014,07,21,11,41,19.70
2014,07,21,11,42,19.80
2014,07,21,11,43,19.90
2014,07,21,11,44,20.10
2014,07,21,11,45,20.10
2014,07,21,11,46,20.10
2014,07,21,11,47,20.10
2014,07,21,11,48,20.20
2014,07,21,11,49,20.20
2014,07,21,11,50,20.20
2014,07,21,11,51,20.30
2014,07,21,11,52,20.40
2014,07,21,11,53,20.60
2014,07,21,11,54,20.70
2014,07,21,11,55,20.80
2014,07,21,11,56,20.90
2014,07,21,11,57,20.80
2014,07,21,11,58,20.80
2014,07,21,11,59,20.80
2014,07,21,12,00,20.50
2014,07,21,12,01,20.40
2014,07,21,12,02,20.40
2014,07,21,12,03,20.40
2014,07,21,12,04,20.40
2014,07,21,12,05,20.50
2014,07,21,12,06,20.60
2014,07,21,12,07,20.60
2014,07,21,12,08,20.60
2014,07,21,12,09,20.60
2014,07,21,12,10,20.50
2014,07,21,12,11,20.40
2014,07,21,12,12,20.40
2014,07,21,12,13,20.50
2014,07,21,12,14,20.60
2014,07,21,12,15,20.60
2014,07,21,12,16,20.60
2014,07,21,12,17,20.70
2014,07,21,12,18,20.80
2014,07,21,12,19,20.90
2014,07,21,12,20,20.90
2014,07,21,12,21,20.90
2014,07,21,12,22,21.00
2014,07,21,12,23,21.00
2014,07,21,12,24,21.20
2014,07,21,12,25,21.20
2014,07,21,12,26,21.20
2014,07,21,12,27,21.20
2014,07,21,12,28,21.20
2014,07,21,12,29,21.20
2014,07,21,12,30,21.30
2014,07,21,12,31,21.30
2014,07,21,12,32,21.30
2014,07,21,12,33,21.30
2014,07,21,12,34,21.30
2014,07,21,12,35,21.60
2014,07,21,12,36,21.60
2014,07,21,12,37,21.60
2014,07,21,12,38,21.70
2014,07,21,12,39,21.80
2014,07,21,12,40,21.90
2014,07,21,12,41,21.90
2014,07,21,12,42,22.00
2014,07,21,12,43,22.00
2014,07,21,12,44,22.10
2014,07,21,12,45,22.10
2014,07,21,12,46,22.10
2014,07,21,12,47,22.10
2014,07,21,12,48,22.10
2014,07,21,12,49,22.00
2014,07,21,12,50,21.90
2014,07,21,12,51,21.80
2014,07,21,12,52,21.90
2014,07,21,12,53,21.80
2014,07,21,12,54,21.80
2014,07,21,12,55,21.70
2014,07,21,12,56,21.60
2014,07,21,12,57,21.70
2014,07,21,12,58,21.70
2014,07,21,12,59,21.80
2014,07,21,13,00,21.70
2014,07,21,13,01,21.70
2014,07,21,13,02,21.80
2014,07,21,13,03,21.80
2014,07,21,13,04,21.90
2014,07,21,13,05,22.00
2014,07,21,13,06,22.10
2014,07,21,13,07,22.20
2014,07,21,13,08,22.40
2014,07,21,13,09,22.40
2014,07,21,13,10,22.50
2014,07,21,13,11,22.50
2014,07,21,13,12,22.50
2014,07,21,13,13,22.40
2014,07,21,13,14,22.40
2014,07,21,13,15,22.30
2014,07,21,13,16,22.30
2014,07,21,13,17,22.40
2014,07,21,13,18,22.40
2014,07,21,13,19,22.40
2014,07,21,13,20,22.40
2014,07,21,13,21,22.30
2014,07,21,13,22,22.20
2014,07,21,13,23,22.20
2014,07,21,13,24,22.20
2014,07,21,13,25,22.20
2014,07,21,13,26,22.20
2014,07,21,13,27,22.20
2014,07,21,13,28,22.20
2014,07,21,13,29,22.30
2014,07,21,13,30,22.40
2014,07,21,13,31,22.50
2014,07,21,13,32,22.60
2014,07,21,13,33,22.60
2014,07,21,13,34,22.70
2014,07,21,13,35,22.90
2014,07,21,13,36,22.90
2014,07,21,13,37,22.80
2014,07,21,13,38,22.80
2014,07,21,13,39,22.80
2014,07,21,13,40,22.80
2014,07,21,13,41,22.80
2014,07,21,13,42,22.80
2014,07,21,13,43,22.80
2014,07,21,13,44,22.70
2014,07,21,13,45,22.70
2014,07,21,13,46,22.70
2014,07,21,13,47,22.70
2014,07,21,13,48,22.70
2014,07,21,13,49,22.70
2014,07,21,13,50,22.70
2014,07,21,13,51,22.60
2014,07,21,13,52,22.60
2014,07,21,13,53,22.50
2014,07,21,13,54,22.50
2014,07,21,13,55,22.50
2014,07,21,13,56,22.60
2014,07,21,13,57,22.60
2014,07,21,13,58,22.70
2014,07,21,13,59,22.80
2014,07,21,14,00,22.80
2014,07,21,14,01,22.90
2014,07,21,14,02,22.90
2014,07,21,14,03,23.10
2014,07,21,14,04,23.30
2014,07,21,14,05,23.30
2014,07,21,14,06,23.70
2014,07,21,14,07,23.70
2014,07,21,14,08,23.80
2014,07,21,14,09,23.90
2014,07,21,14,10,23.80
2014,07,21,14,11,23.80
2014,07,21,14,12,23.70
2014,07,21,14,13,23.40
2014,07,21,14,14,23.30
2014,07,21,14,15,23.20
2014,07,21,14,16,23.10
2014,07,21,14,17,23.20
2014,07,21,14,18,23.20
2014,07,21,14,19,23.30
2014,07,21,14,20,23.20
2014,07,21,14,21,23.10
2014,07,21,14,22,22.90
2014,07,21,14,23,22.70
2014,07,21,14,24,22.50
2014,07,21,14,25,22.40
2014,07,21,14,26,22.40
2014,07,21,14,27,22.40
2014,07,21,14,28,22.30
2014,07,21,14,29,22.30
2014,07,21,14,30,22.40
2014,07,21,14,31,22.40
2014,07,21,14,32,22.60
2014,07,21,14,33,22.60
2014,07,21,14,34,22.60
2014,07,21,14,35,22.70
2014,07,21,14,36,22.70
2014,07,21,14,37,22.70
2014,07,21,14,38,22.70
2014,07,21,14,39,22.70
2014,07,21,14,40,22.70
2014,07,21,14,41,22.70
2014,07,21,14,42,22.70
2014,07,21,14,43,22.70
2014,07,21,14,44,22.80
2014,07,21,14,45,22.80
2014,07,21,14,46,22.80
2014,07,21,14,47,22.90
2014,07,21,14,48,22.90
2014,07,21,14,49,22.90
2014,07,21,14,50,23.10
2014,07,21,14,51,23.20
2014,07,21,14,52,23.30
2014,07,21,14,53,23.20
2014,07,21,14,54,23.30
2014,07,21,14,55,23.30
2014,07,21,14,56,23.30
2014,07,21,14,57,23.30
2014,07,21,14,58,23.30
2014,07,21,14,59,23.30
2014,07,21,15,00,23.30
2014,07,21,15,01,23.30
2014,07,21,15,02,23.30
2014,07,21,15,03,23.30
2014,07,21,15,04,23.30
2014,07,21,15,05,23.30
2014,07,21,15,06,23.20
2014,07,21,15,07,22.90
2014,07,21,15,08,22.90
2014,07,21,15,09,22.70
2014,07,21,15,10,22.70
2014,07,21,15,11,22.70
2014,07,21,15,12,22.60
2014,07,21,15,13,22.60
2014,07,21,15,14,22.60
2014,07,21,15,15,22.50
2014,07,21,15,16,22.30
2014,07,21,15,17,22.20
2014,07,21,15,18,22.10
2014,07,21,15,19,22.10
2014,07,21,15,20,22.00
2014,07,21,15,21,22.00
2014,07,21,15,22,22.10
2014,07,21,15,23,22.20
2014,07,21,15,24,22.20
2014,07,21,15,25,22.10
2014,07,21,15,26,22.10
2014,07,21,15,27,22.20
2014,07,21,15,28,22.20
2014,07,21,15,29,22.10
2014,07,21,15,30,22.10
2014,07,21,15,31,22.00
2014,07,21,15,32,21.90
2014,07,21,15,33,21.80
2014,07,21,15,34,21.80
2014,07,21,15,35,21.70
2014,07,21,15,36,21.70
2014,07,21,15,37,21.70
2014,07,21,15,38,21.60
2014,07,21,15,39,21.70
2014,07,21,15,40,21.70
2014,07,21,15,41,21.70
2014,07,21,15,42,21.70
2014,07,21,15,43,21.70
2014,07,21,15,44,21.80
2014,07,21,15,45,21.80
2014,07,21,15,46,21.90
2014,07,21,15,47,21.90
2014,07,21,15,48,21.90
2014,07,21,15,49,21.90
2014,07,21,15,50,21.90
2014,07,21,15,51,21.90
2014,07,21,15,52,21.90
2014,07,21,15,53,21.80
2014,07,21,15,54,21.80
2014,07,21,15,55,21.80
2014,07,21,15,56,21.70
2014,07,21,15,57,21.70
2014,07,21,15,58,21.70
2014,07,21,15,59,21.60
2014,07,21,16,00,21.60
2014,07,21,16,01,21.60
2014,07,21,16,02,21.60
2014,07,21,16,03,21.60
2014,07,21,16,04,21.70
2014,07,21,16,06,21.70
2014,07,21,16,07,21.70
2014,07,21,16,08,21.70
2014,07,21,16,09,21.70
2014,07,21,16,10,21.80
2014,07,21,16,11,21.80
2014,07,21,16,12,21.70
2014,07,21,16,13,21.60
2014,07,21,16,14,21.60
2014,07,21,16,15,21.60
2014,07,21,16,16,21.60
2014,07,21,16,17,21.60
2014,07,21,16,18,21.60
2014,07,21,16,19,21.60
2014,07,21,16,20,21.60
2014,07,21,16,21,21.60
2014,07,21,16,22,21.60
2014,07,21,16,23,21.60
2014,07,21,16,24,21.60
2014,07,21,16,25,21.40
2014,07,21,16,26,21.40
2014,07,21,16,27,21.40
2014,07,21,16,28,21.40
2014,07,21,16,29,21.40
2014,07,21,16,30,21.40
2014,07,21,16,31,21.40
2014,07,21,16,32,21.40
2014,07,21,16,33,21.40
2014,07,21,16,34,21.30
2014,07,21,16,35,21.30
2014,07,21,16,36,21.30
2014,07,21,16,37,21.30
2014,07,21,16,38,21.30
2014,07,21,16,39,21.40
2014,07,21,16,40,21.40
2014,07,21,16,41,21.40
2014,07,21,16,42,21.60
2014,07,21,16,43,21.60
2014,07,21,16,44,21.60
2014,07,21,16,45,21.60
2014,07,21,16,46,21.60
2014,07,21,16,47,21.60
2014,07,21,16,48,21.60
2014,07,21,16,49,21.60
2014,07,21,16,50,21.60
2014,07,21,16,51,21.70
2014,07,21,16,52,21.70
2014,07,21,16,53,21.70
2014,07,21,16,54,21.70
2014,07,21,16,55,21.60
2014,07,21,16,56,21.60
2014,07,21,16,57,21.60
2014,07,21,16,58,21.60
2014,07,21,16,59,21.60
2014,07,21,17,00,21.60
2014,07,21,17,01,21.60
2014,07,21,17,02,21.60
2014,07,21,17,03,21.60
2014,07,21,17,04,21.60
2014,07,21,17,05,21.60
2014,07,21,17,06,21.60
2014,07,21,17,07,21.40
2014,07,21,17,08,21.40
2014,07,21,17,09,21.60
2014,07,21,17,10,21.60
2014,07,21,17,11,21.60
2014,07,21,17,12,21.60
2014,07,21,17,13,21.60
2014,07,21,17,14,21.40
2014,07,21,17,15,21.40
2014,07,21,17,16,21.40
2014,07,21,17,17,21.30
2014,07,21,17,18,21.30
2014,07,21,17,19,21.30
2014,07,21,17,20,21.30
2014,07,21,17,21,21.30
2014,07,21,17,22,21.30
2014,07,21,17,23,21.30
2014,07,21,17,24,21.30
2014,07,21,17,25,21.30
2014,07,21,17,26,21.20
2014,07,21,17,27,21.20
2014,07,21,17,28,21.20
2014,07,21,17,29,21.20
2014,07,21,17,30,21.10
2014,07,21,17,31,21.10
2014,07,21,17,32,21.10
2014,07,21,17,33,21.10
2014,07,21,17,34,21.10
2014,07,21,17,35,21.10
2014,07,21,17,36,21.10
2014,07,21,17,37,21.20
2014,07,21,17,38,21.20
2014,07,21,17,39,21.20
2014,07,21,17,40,21.20
2014,07,21,17,41,21.20
2014,07,21,17,42,21.10
2014,07,21,17,43,21.10
2014,07,21,17,44,21.10
2014,07,21,17,45,21.00
2014,07,21,17,46,21.00
2014,07,21,17,47,21.00
2014,07,21,17,48,20.90
2014,07,21,17,49,20.90
2014,07,21,17,50,20.90
2014,07,21,17,51,20.90
2014,07,21,17,52,20.80
2014,07,21,17,53,20.80
2014,07,21,17,54,20.70
2014,07,21,17,55,20.70
2014,07,21,17,56,20.70
2014,07,21,17,57,20.70
2014,07,21,17,58,20.60
2014,07,21,17,59,20.60
2014,07,21,18,00,20.50
2014,07,21,18,01,20.50
2014,07,21,18,02,20.50
2014,07,21,18,03,20.40
2014,07,21,18,04,20.40
2014,07,21,18,05,20.40
2014,07,21,18,06,20.30
2014,07,21,18,07,20.30
2014,07,21,18,08,20.40
2014,07,21,18,09,20.30
2014,07,21,18,10,20.30
2014,07,21,18,11,20.40
2014,07,21,18,12,20.40
2014,07,21,18,13,20.40
2014,07,21,18,14,20.40
2014,07,21,18,15,20.40
2014,07,21,18,16,20.40
2014,07,21,18,17,20.50
2014,07,21,18,18,20.50
2014,07,21,18,19,20.40
2014,07,21,18,20,20.40
2014,07,21,18,21,20.40
2014,07,21,18,22,20.40
2014,07,21,18,23,20.30
2014,07,21,18,24,20.30
2014,07,21,18,25,20.30
2014,07,21,18,26,20.20
2014,07,21,18,27,20.20
2014,07,21,18,28,20.20
2014,07,21,18,29,20.20
2014,07,21,18,30,20.20
2014,07,21,18,31,20.20
2014,07,21,18,32,20.20
2014,07,21,18,33,20.20
2014,07,21,18,34,20.20
2014,07,21,18,35,20.20
2014,07,21,18,36,20.10
2014,07,21,18,37,20.10
2014,07,21,18,38,20.10
2014,07,21,18,39,20.10
2014,07,21,18,40,20.10
2014,07,21,18,41,20.10
2014,07,21,18,42,20.20
2014,07,21,18,43,20.20
2014,07,21,18,44,20.20
2014,07,21,18,45,20.20
2014,07,21,18,46,20.10
2014,07,21,18,47,20.10
2014,07,21,18,48,20.10
2014,07,21,18,49,19.90
2014,07,21,18,50,19.90
2014,07,21,18,51,19.90
2014,07,21,18,52,19.90
2014,07,21,18,53,19.90
2014,07,21,18,54,19.90
2014,07,21,18,55,19.90
2014,07,21,18,56,19.90
2014,07,21,18,57,19.90
2014,07,21,18,58,19.90
2014,07,21,18,59,19.90
2014,07,21,19,00,19.90
2014,07,21,19,01,19.80
2014,07,21,19,02,19.80
2014,07,21,19,03,19.80
2014,07,21,19,04,19.80
2014,07,21,19,05,19.70
2014,07,21,19,06,19.70
2014,07,21,19,07,19.70
2014,07,21,19,08,19.70
2014,07,21,19,09,19.60
2014,07,21,19,10,19.60
2014,07,21,19,11,19.50
2014,07,21,19,12,19.50
2014,07,21,19,13,19.50
2014,07,21,19,14,19.50
2014,07,21,19,15,19.50
2014,07,21,19,16,19.50
2014,07,21,19,17,19.60
2014,07,21,19,18,19.60
2014,07,21,19,19,19.50
2014,07,21,19,20,19.50
2014,07,21,19,21,19.50
2014,07,21,19,22,19.40
2014,07,21,19,24,19.40
2014,07,21,19,25,19.40
2014,07,21,19,26,19.30
2014,07,21,19,27,19.30
2014,07,21,19,28,19.30
2014,07,21,19,29,19.30
2014,07,21,19,30,19.30
2014,07,21,19,31,19.30
2014,07,21,19,32,19.30
2014,07,21,19,33,19.30
2014,07,21,19,34,19.30
2014,07,21,19,35,19.30
2014,07,21,19,36,19.30
2014,07,21,19,37,19.30
2014,07,21,19,38,19.30
